Powrót do katalogu

FENGYUN 1C DEB

AktywnyPO
NORAD 37478·DEBRIS·🇨🇳 China

Wystrzelony May 10, 1999 z Taiyuan Satellite Launch Center

Loading…

Następne Przeloty (najbliższe 24 godziny)

TLE

ŚwieżeSource: Space-Track

Epoka: Sep 14, 2026, 02:55 UTC

1 37478U 99025EJY 26257.12156040  .00002383  00000-0  36983-2 0  9992
2 37478  99.6550 216.5532 0548904  44.5644 319.8272 13.03848435601497

Śledź FENGYUN 1C DEB w czasie rzeczywistym z AllMySat

Download on the App Store